K1VL Weather Reports


time (UTC)temp
F
wind
direction
speed
knots
gust
knots
rain 1hr
in
rain 24hr
in
rain mn
in
humidity
%
barometer
mb
20260507000537 40 0.0 0.9 0.01 0.78 0.78 100 1008.4
20260507000017 41 0.0 0.9 0.01 0.78 0.78 100 1008.4
20260506235517 40 0.0 1.7 0.01 0.79 0.78 100 1008.3
20260506235017 40 315 0.9 2.6 0.01 0.79 0.78 99 1008.2
20260506234517 40 315 0.9 3.5 0.00 0.78 0.77 99 1008.0
20260506234037 40 315 0.9 2.6 0.00 0.78 0.77 99 1008.0
20260506233517 40 315 0.9 2.6 0.01 0.78 0.77 99 1007.8
20260506233017 40 315 1.7 5.2 0.01 0.78 0.77 99 1007.8
20260506232517 40 315 1.7 5.2 0.01 0.78 0.77 99 1007.9
20260506232017 40 315 3.5 7.0 0.02 0.78 0.77 99 1007.7
20260506231517 41 315 2.6 5.2 0.02 0.78 0.77 99 1007.4
20260506231037 41 315 2.6 5.2 0.02 0.78 0.77 99 1007.4
20260506230517 41 315 2.6 7.0 0.02 0.78 0.77 99 1007.4
20260506230017 42 315 1.7 3.5 0.02 0.78 0.77 99 1007.5
20260506225517 42 315 0.9 4.3 0.02 0.78 0.77 99 1007.5
20260506225017 42 0.0 1.7 0.02 0.78 0.77 99 1007.4
20260506224517 42 315 0.9 4.3 0.02 0.78 0.77 99 1007.3
20260506224017 42 0.0 1.7 0.02 0.78 0.77 99 1007.3
20260506223517 42 0.0 0.9 0.01 0.77 0.76 99 1007.3
20260506223017 43 0.0 0.9 0.01 0.77 0.76 99 1007.2
20260506222517 43 0.0 0.9 0.01 0.77 0.76 99 1007.1
20260506222017 43 225 0.9 1.7 0.01 0.76 0.75 99 1007.1
20260506221517 43 0.0 0.9 0.01 0.76 0.75 99 1007.0
20260506221037 43 0.0 0.9 0.01 0.76 0.75 99 1007.1
20260506220517 43 315 0.9 1.7 0.01 0.76 0.75 99 1007.1
20260506220017 43 0.0 0.9 0.01 0.76 0.75 99 1007.0
20260506215517 44 315 0.9 1.7 0.01 0.76 0.75 99 1006.8
20260506215017 44 315 0.9 2.6 0.01 0.76 0.75 99 1006.8
20260506214517 44 0.0 0.9 0.01 0.76 0.75 99 1006.6
20260506214017 44 293 0.9 1.7 0.01 0.76 0.75 99 1006.6
20260506213517 44 315 0.9 3.5 0.01 0.76 0.75 99 1006.5
20260506213037 44 0.0 0.9 0.01 0.76 0.75 99 1006.6
20260506212517 44 0.0 0.9 0.01 0.76 0.75 99 1006.6
20260506212017 44 0.0 0.9 0.00 0.75 0.74 99 1006.6
20260506211517 44 0.0 0.9 0.01 0.75 0.74 99 1006.6
20260506211017 44 0.0 1.7 0.01 0.75 0.74 99 1006.6
20260506210517 45 0.0 1.7 0.01 0.75 0.74 99 1006.7
20260506210017 45 0.0 1.7 0.02 0.75 0.74 99 1006.6
20260506205517 45 0.0 1.7 0.03 0.75 0.74 99 1006.7
20260506205017 45 0.0 1.7 0.04 0.75 0.74 99 1006.7
20260506204537 45 293 0.9 2.6 0.04 0.75 0.74 99 1006.6
20260506204037 45 293 0.9 2.6 0.04 0.75 0.74 99 1006.6
20260506203517 45 0.0 0.9 0.05 0.75 0.74 99 1006.5
20260506203019 45 0.0 0.9 0.05 0.75 0.74 99 1006.6
20260506202517 44 0.0 1.7 0.06 0.76 0.74 99 1006.5
20260506202017 44 0.0 1.7 0.06 0.77 0.74 99 1006.7
20260506201517 44 315 0.9 1.7 0.06 0.82 0.73 99 1006.8
20260506201017 44 315 0.9 3.5 0.07 0.83 0.73 99 1006.8
20260506200517 44 293 1.7 4.3 0.07 0.83 0.73 98 1006.9
20260506200017 45 293 1.7 4.3 0.07 0.82 0.72 98 1006.7
20260506195517 45 315 2.6 6.1 0.07 0.81 0.71 98 1006.7
20260506195037 45 315 4.3 7.0 0.06 0.80 0.70 98 1006.7
20260506194517 45 315 2.6 6.1 0.06 0.80 0.70 98 1006.6
20260506194017 45 315 1.7 3.5 0.06 0.80 0.70 98 1006.6
20260506193517 46 315 1.7 5.2 0.05 0.79 0.69 97 1006.7
20260506193017 47 338 1.7 5.2 0.06 0.79 0.69 97 1006.7
20260506192517 47 0.0 2.6 0.05 0.78 0.68 98 1006.6
20260506192017 47 315 1.7 3.5 0.05 0.78 0.68 98 1006.7
20260506191517 48 315 1.7 3.5 0.05 0.77 0.67 98 1006.6
20260506191017 48 315 2.6 4.3 0.04 0.76 0.66 98 1006.5
20260506190537 48 315 3.5 6.1 0.04 0.76 0.66 97 1006.6
20260506190018 49 315 3.5 5.2 0.03 0.75 0.65 97 1006.5
20260506185517 50 315 0.9 2.6 0.03 0.74 0.64 97 1006.4
20260506185037 51 338 1.7 4.3 0.04 0.74 0.64 95 1006.5
20260506184517 52 293 1.7 6.1 0.05 0.74 0.64 97 1006.5
20260506184017 53 315 1.7 2.6 0.07 0.74 0.64 95 1006.6
20260506183517 55 270 0.9 5.2 0.11 0.74 0.64 94 1006.7
20260506183017 57 158 0.9 2.6 0.12 0.73 0.63 96 1006.5
20260506182517 57 158 0.9 1.7 0.13 0.73 0.63 98 1006.5
20260506182017 57 158 0.9 3.5 0.15 0.73 0.63 98 1006.5
20260506181517 57 135 0.9 6.1 0.15 0.72 0.62 98 1006.5
20260506181017 56 90 1.7 4.3 0.17 0.72 0.62 99 1006.5
20260506180517 56 90 1.7 2.6 0.19 0.72 0.62 99 1006.5
20260506180017 56 90 1.7 3.5 0.20 0.72 0.62 99 1006.5
20260506175517 56 90 0.9 1.7 0.20 0.71 0.61 99 1006.7
20260506175017 56 113 1.7 2.6 0.21 0.70 0.60 99 1006.8
20260506174517 56 135 0.9 2.6 0.21 0.69 0.59 99 1006.9
20260506174017 56 90 0.9 1.7 0.21 0.67 0.57 99 1006.9
20260506173517 56 90 0.9 1.7 0.20 0.63 0.53 98 1007.0
20260506173017 56 90 1.7 2.6 0.19 0.61 0.51 99 1007.1
20260506172517 56 90 0.9 3.5 0.20 0.60 0.50 98 1007.3
20260506172017 56 135 0.9 2.6 0.19 0.58 0.48 98 1007.4
20260506171517 56 135 0.9 1.7 0.21 0.57 0.47 98 1007.5
20260506171017 56 0.0 0.0 0.20 0.55 0.45 98 1007.6
20260506170517 56 0.0 0.9 0.24 0.53 0.43 98 1007.7
20260506170017 56 0.0 1.7 0.23 0.52 0.42 98 1007.7
20260506165517 56 90 0.9 1.7 0.23 0.51 0.41 98 1007.7
20260506165017 56 135 0.9 3.5 0.22 0.49 0.39 98 1007.6
20260506164517 56 135 0.9 2.6 0.22 0.48 0.38 98 1007.8
20260506164017 56 225 0.9 2.6 0.21 0.46 0.36 98 1007.8
20260506163517 56 135 0.9 3.5 0.18 0.43 0.33 98 1007.5
20260506163017 56 0.0 0.9 0.18 0.42 0.32 98 1007.5
20260506162517 56 158 0.9 3.5 0.17 0.40 0.30 98 1007.5
20260506162017 56 158 0.9 4.3 0.16 0.39 0.29 98 1007.7
20260506161517 56 90 0.9 2.6 0.13 0.36 0.26 98 1007.6
20260506161017 56 158 0.9 1.7 0.13 0.35 0.25 98 1007.8
20260506160517 56 113 1.7 4.3 0.07 0.29 0.19 97 1007.7
20260506160017 56 113 1.7 1.7 0.07 0.29 0.19 97 1007.9
20260506155517 57 0.0 0.9 0.07 0.28 0.18 97 1007.9
20260506155037 57 0.0 0.9 0.06 0.27 0.17 97 1008.0
20260506154537 57 0.0 0.0 0.06 0.26 0.16 97 1008.1
20260506154037 57 0.0 0.9 0.05 0.25 0.15 97 1008.1
20260506153517 57 0.0 1.7 0.06 0.25 0.15 97 1008.3
20260506153017 57 0.0 0.0 0.05 0.24 0.14 97 1008.4
20260506152517 56 0.0 0.0 0.04 0.23 0.13 97 1008.5
20260506152017 57 0.0 0.9 0.05 0.23 0.13 97 1008.5
20260506151537 57 0.0 0.0 0.05 0.23 0.13 97 1008.6
20260506151017 56 0.0 0.0 0.04 0.22 0.12 98 1008.8
20260506150517 56 0.0 0.0 0.05 0.22 0.12 97 1008.8
20260506150017 56 0.0 0.0 0.05 0.22 0.12 97 1008.9
20260506145517 56 0.0 0.0 0.05 0.21 0.11 97 1008.9
20260506145037 56 0.0 0.0 0.05 0.21 0.11 97 1008.9
20260506144517 56 0.0 0.0 0.04 0.20 0.10 97 1008.9
20260506144017 56 0.0 0.0 0.04 0.20 0.10 97 1008.9
20260506143517 56 0.0 0.0 0.03 0.19 0.09 96 1009.0
20260506143017 56 0.0 0.0 0.04 0.19 0.09 96 1009.0
20260506142517 56 0.0 0.9 0.04 0.19 0.09 96 1009.0
20260506142037 56 0.0 0.0 0.03 0.18 0.08 96 1009.0
20260506141517 56 0.0 0.0 0.03 0.18 0.08 97 1008.9
20260506141037 56 0.0 0.0 0.03 0.18 0.08 96 1008.9
20260506140517 56 0.0 0.9 0.02 0.17 0.07 96 1009.0
20260506140017 56 315 0.9 3.5 0.02 0.17 0.07 95 1008.8
20260506135517 56 0.0 0.9 0.01 0.16 0.06 96 1008.9
20260506135018 56 0.0 0.0 0.01 0.16 0.06 97 1008.8
20260506134517 56 0.0 0.9 0.01 0.16 0.06 96 1008.8
20260506134017 56 0.0 1.7 0.01 0.16 0.06 96 1008.7
20260506133537 56 248 0.9 2.6 0.01 0.16 0.06 96 1008.7
20260506133037 56 0.0 0.9 0.00 0.15 0.05 96 1008.8
20260506132517 55 0.0 0.0 0.01 0.15 0.05 97 1008.8
20260506132017 55 0.0 0.9 0.01 0.15 0.05 97 1008.7
20260506131517 55 0.0 0.0 0.01 0.15 0.05 97 1008.9
20260506131017 55 0.0 0.0 0.01 0.15 0.05 97 1009.1
20260506130538 55 0.0 0.0 0.01 0.15 0.05 97 1009.0
20260506130018 55 0.0 0.9 0.01 0.15 0.05 97 1009.2
20260506125517 55 0.0 0.9 0.01 0.15 0.05 97 1009.2
20260506125017 55 0.0 0.9 0.01 0.15 0.05 97 1009.3
20260506124517 55 0.0 1.7 0.01 0.15 0.05 98 1009.3
20260506124017 55 0.0 1.7 0.01 0.15 0.05 98 1009.4
20260506123517 55 0.0 0.9 0.01 0.15 0.05 99 1009.3
20260506123017 54 0.0 0.0 0.01 0.15 0.05 99 1009.2
20260506122538 54 0.0 0.0 0.00 0.14 0.04 99 1009.0
20260506122017 54 0.0 0.0 0.00 0.14 0.04 100 1008.9
20260506121517 54 0.0 0.0 0.00 0.14 0.04 100 1009.0
20260506121017 54 0.0 0.0 0.00 0.14 0.04 100 1009.1
20260506120517 53 0.0 0.9 0.00 0.14 0.04 100 1009.1
20260506120017 53 0.0 0.9 0.00 0.14 0.04 100 1009.1
20260506115517 53 0.0 0.9 0.00 0.14 0.04 100 1009.2
20260506115017 52 135 0.9 2.6 0.00 0.14 0.04 100 1009.2
20260506114517 52 113 0.9 1.7 0.00 0.14 0.04 100 1009.2
20260506114017 52 135 0.9 1.7 0.00 0.14 0.04 100 1009.1
20260506113517 51 0.0 0.9 0.00 0.14 0.04 100 1009.2
20260506113017 51 0.0 0.0 0.00 0.14 0.04 100 1009.3
20260506112517 51 0.0 0.0 0.00 0.14 0.04 100 1009.3
20260506112038 51 0.0 1.7 0.00 0.14 0.04 100 1009.2
20260506111517 51 0.0 0.9 0.00 0.14 0.04 100 1009.0
20260506111017 51 0.0 0.0 0.00 0.14 0.04 100 1009.0
20260506110517 50 0.0 0.0 0.00 0.14 0.04 100 1008.8
20260506110017 50 0.0 0.0 0.00 0.14 0.04 100 1008.9
20260506105517 50 0.0 1.7 0.00 0.14 0.04 100 1008.8
20260506105017 49 0.0 0.0 0.00 0.14 0.04 100 1009.1
20260506104517 49 0.0 0.0 0.00 0.14 0.04 100 1009.1
20260506104017 49 0.0 0.0 0.00 0.14 0.04 100 1009.1
20260506103517 49 0.0 0.9 0.00 0.14 0.04 100 1009.1
20260506103017 49 0.0 0.0 0.00 0.14 0.04 100 1009.1
20260506102517 49 0.0 0.9 0.00 0.14 0.04 100 1009.1
20260506102018 48 0.0 0.0 0.00 0.14 0.04 99 1008.9
20260506101537 48 0.0 0.0 0.00 0.14 0.04 99 1009.0
20260506101017 48 0.0 0.0 0.00 0.14 0.04 99 1009.0
20260506100517 48 0.0 0.9 0.00 0.14 0.04 99 1009.0
20260506100037 48 0.0 0.9 0.00 0.14 0.04 99 1009.1
20260506095517 48 0.0 0.9 0.00 0.14 0.04 99 1009.2
20260506095017 48 0.0 0.0 0.00 0.14 0.04 99 1009.3
20260506094517 48 0.0 0.9 0.00 0.14 0.04 99 1009.1
20260506094017 48 0.0 1.7 0.00 0.14 0.04 99 1009.2
20260506093517 48 0.0 1.7 0.00 0.14 0.04 99 1009.2
20260506093017 49 0.0 0.0 0.00 0.14 0.04 99 1009.4
20260506092517 49 0.0 0.0 0.00 0.14 0.04 99 1009.2
20260506092017 49 0.0 0.9 0.00 0.14 0.04 99 1009.2
20260506091537 49 0.0 0.0 0.00 0.14 0.04 99 1009.2
20260506091017 49 0.0 0.0 0.00 0.14 0.04 99 1009.2
20260506090517 49 0.0 0.0 0.00 0.14 0.04 99 1009.4
20260506090017 49 0.0 0.0 0.00 0.14 0.04 99 1009.6
20260506085517 50 0.0 0.0 0.00 0.14 0.04 99 1009.5
20260506085017 50 0.0 0.0 0.00 0.14 0.04 99 1009.5
20260506084517 50 0.0 0.0 0.00 0.14 0.04 99 1009.6
20260506084015 50 0.0 0.0 0.00 0.14 0.04 99 1009.8
20260506083515 50 0.0 0.9 0.00 0.14 0.04 99 1009.7
20260506083015 51 113 0.9 0.9 0.00 0.14 0.04 99 1009.6
20260506082515 51 0.0 0.9 0.00 0.14 0.04 99 1009.9
20260506082015 51 0.0 0.0 0.00 0.14 0.04 99 1010.1
20260506081555 51 0.0 0.0 0.00 0.14 0.04 99 1010.0
20260506081056 51 0.0 0.0 0.00 0.14 0.04 99 1010.0
20260506080515 51 0.0 0.0 0.00 0.14 0.04 99 1010.0
20260506073515 52 0.0 0.0 0.00 0.14 0.04 99 1009.8
20260506073015 52 0.0 0.0 0.00 0.14 0.04 99 1009.8
20260506072515 53 0.0 0.0 0.00 0.14 0.04 99 1009.8
20260506072015 53 0.0 0.0 0.00 0.14 0.04 99 1009.7
20260506071515 53 0.0 0.0 0.00 0.14 0.04 99 1009.9
20260506071015 53 0.0 0.0 0.00 0.14 0.04 99 1009.9
20260506070536 53 0.0 0.0 0.00 0.14 0.04 99 1010.0
20260506062019 54 0.0 0.0 0.00 0.14 0.04 98 1010.1
20260506061519 54 0.0 0.0 0.00 0.14 0.04 98 1010.1
20260506061019 55 0.0 0.9 0.01 0.14 0.04 98 1010.1
20260506060519 55 0.0 0.0 0.02 0.14 0.04 98 1010.1
20260506051036 55 293 0.9 3.5 0.03 0.13 0.03 99 1010.7
20260506050535 55 0.0 1.7 0.02 0.12 0.02 99 1010.5
20260506045015 55 0.0 0.9 0.00 0.10 0.00 99 1010.3
20260506044515 55 0.0 0.9 0.00 0.10 0.00 99 1010.3
20260506044015 54 0.0 0.0 0.00 0.10 0.00 99 1010.3
20260506043515 54 0.0 0.9 0.00 0.10 0.00 99 1010.3
20260506043015 54 0.0 0.0 0.00 0.10 0.00 99 1010.3
20260506042515 54 0.0 0.0 0.00 0.10 0.00 99 1010.1
20260506042036 54 0.0 0.9 0.00 0.10 0.00 99 1010.2
20260506041535 54 0.0 0.0 0.00 0.10 0.00 99 1010.2
20260506041056 54 0.0 0.0 0.00 0.10 0.00 99 1010.3
20260506040515 54 0.0 0.0 0.00 0.10 0.00 99 1010.3
20260506040015 54 0.0 0.0 0.00 0.10 0.01 98 1010.2
20260506035515 54 0.0 0.9 0.00 0.10 0.01 98 1010.1
20260506035015 54 0.0 0.9 0.00 0.10 0.01 98 1010.0
20260506034515 54 0.0 0.9 0.00 0.10 0.01 98 1010.0
20260506034035 54 0.0 0.9 0.00 0.10 0.01 98 1010.1
20260506033515 54 0.0 0.9 0.00 0.10 0.01 99 1010.1
20260506033015 54 0.0 0.9 0.00 0.10 0.01 98 1010.0
20260506032515 54 0.0 0.0 0.00 0.10 0.01 98 1010.0
20260506032015 54 0.0 0.0 0.00 0.10 0.01 98 1010.0
20260506031515 54 0.0 0.0 0.00 0.10 0.01 98 1009.9
20260506031015 54 0.0 0.9 0.00 0.10 0.01 98 1009.9
20260506030516 54 0.0 0.9 0.00 0.10 0.01 98 1009.9
20260506030015 54 0.0 0.9 0.00 0.10 0.01 98 1009.9
20260506025515 54 0.0 0.0 0.00 0.10 0.01 98 1009.8
20260506025015 54 0.0 0.9 0.00 0.10 0.01 98 1009.8
20260506024515 54 0.0 0.0 0.00 0.10 0.01 98 1009.8
20260506024015 54 0.0 0.0 0.00 0.10 0.01 98 1009.9
20260506023515 54 0.0 0.9 0.00 0.10 0.01 98 1009.8
20260506023015 54 0.0 0.0 0.00 0.10 0.01 98 1009.7
20260506022516 54 0.0 0.9 0.00 0.10 0.01 98 1009.7
20260506022016 54 0.0 0.9 0.00 0.10 0.01 98 1009.8
20260506021515 54 0.0 0.9 0.00 0.10 0.01 98 1009.8
20260506021015 54 0.0 0.0 0.00 0.10 0.01 99 1009.7
20260506020515 54 113 0.9 5.2 0.00 0.10 0.01 99 1009.8
20260506020015 54 0.0 0.0 0.00 0.10 0.01 99 1009.8
20260506015515 54 0.0 0.0 0.00 0.10 0.01 99 1009.8
20260506015015 54 0.0 0.0 0.00 0.10 0.01 99 1009.6
20260506014515 54 0.0 0.9 0.00 0.10 0.01 99 1009.7
20260506014015 53 0.0 1.7 0.00 0.10 0.01 99 1009.7
20260506013515 53 0.0 0.0 0.00 0.10 0.01 98 1009.6
20260506013015 53 0.0 0.0 0.00 0.10 0.01 98 1009.6
20260506012535 53 0.0 0.0 0.00 0.10 0.01 98 1009.5
20260506012015 53 0.0 0.9 0.00 0.10 0.01 98 1009.4
20260506011536 53 0.0 1.7 0.00 0.10 0.01 98 1009.2
20260506011016 54 0.0 0.9 0.00 0.10 0.01 98 1009.1
20260506010515 54 90 0.9 1.7 0.00 0.10 0.01 98 1009.1
20260506010015 54 0.0 0.9 0.00 0.10 0.01 98 1008.9
20260506005515 55 0.0 0.9 0.01 0.10 0.01 98 1008.9
20260506005015 55 0.0 0.0 0.01 0.10 0.01 98 1008.9
20260506004515 55 0.0 0.0 0.01 0.10 0.01 97 1008.9
20260506004015 55 0.0 0.0 0.01 0.10 0.01 98 1008.9
20260506003515 55 0.0 0.9 0.01 0.10 0.01 97 1009.0
20260506003015 56 0.0 1.7 0.01 0.10 0.01 97 1009.0
20260506002516 56 90 0.9 2.6 0.01 0.10 0.01 97 1008.9
20260506002015 56 0.0 0.0 0.01 0.10 0.01 97 1008.9
20260506001515 56 0.0 0.0 0.01 0.10 0.01 97 1009.0
20260506001015 56 0.0 0.0 0.01 0.10 0.01 97 1008.9